User: anonymous   Login
Location: Roanoke
(37.2710°N, 79.9420°W)
Time: 15:14:22
(UTC-04:00)
Language:

FENGYUN 3A - Orbit

View from above orbital plane
View from above orbital plane
View from above satellite
View from above satellite

Ground track
Ground track

The orbit data is extracted from the following two-line orbital elements,

1 32958U 08026A   17141.92558914 -.00000024 +00000-0 +81654-5 0  9996
2 32958 098.4101 171.9152 0009814 004.8747 355.2526 14.19660726465612
Epoch (UTC): 21 May 2017 22:12:50
Eccentricity: 0.0009814
inclination: 98.4101°
perigee height: 819 km
apogee height: 833 km
right ascension of ascending node: 171.9152°
argument of perigee: 4.8747°
revolutions per day: 14.19660726
mean anomaly at epoch: 355.2526°
orbit number at epoch: 46561

The dashed part of the orbit path shows where the satellite is in the earth's shadow,  

DLR